Flag for Germany Weather past 2 weeks in Arnstadt, Thuringia, Germany

Now
46 °F

Partly sunny.


Feels Like: 39 °F
Forecast: 37 / 49 °F
Wind: 15 mph from Northwest

Location: Erfurt-Bindersleben

Current Time: Mar 30, 2015 at 3:24:10 PM

Latest Report: Mar 30, 2015 at 3:00 PM


Visibility: 31 mi

Pressure: 29.59 "Hg

Humidity: 56%

Dew point: 31 °F

Location of ArnstadtLocation

Historic Weather in Arnstadt — Graph

°F

Arnstadt temperature yesterday

Maximum temperature yesterday: 52 °F (at 11:00 AM)
Minimum temperature yesterday: 45 °F (at 12:00 AM)
Average temperature yesterday: 49 °F

Past Weeks' High & Low Weather Summary

 TemperatureHumidityPressure
High62 °F (Mar 25, 4:00 PM)100% (Mar 22, 1:00 AM)30.37 "Hg (Mar 22, 1:00 AM)
Low27 °F (Mar 23, 6:00 AM)32% (Mar 20, 3:00 PM)29.23 "Hg (Mar 29, 10:00 PM)
Average42 °F78%30.04 "Hg
* Reported Mar 15 1:00 PM — Mar 30 2:00 PM, Arnstadt, Weather by CustomWeather, © 2015

Note: Actual official high and low records may vary slightly from our data, if they occured in-between our weather recording intervals... More about our weather records

Advertising

Arnstadt weather history for previous 24 hours

 ConditionsComfort  
Time TempWeatherWind HumidityBarometerVisibility
2:00 PM
Mon, Mar 30
41 °FPassing clouds.13 mph87%29.58 "Hg31 mi
1:00 PM42 °FSprinkles. Partly sunny.13 mph74%29.55 "Hg31 mi
12:00 PM37 °FSleet. Low clouds.20 mphN/A29.53 "Hg5 mi
11:00 AM42 °FScattered clouds.14 mph65%29.47 "Hg31 mi
10:00 AM42 °FScattered clouds.14 mph71%29.44 "Hg25 mi
9:00 AM41 °FPassing clouds.14 mph76%29.41 "Hg37 mi
8:00 AM39 °FPassing clouds.14 mph83%29.38 "Hg37 mi
7:00 AM39 °FPassing clouds.12 mph89%29.38 "Hg12 mi
6:00 AM42 °FLight rain. Overcast.12 mph81%29.35 "Hg25 mi
4:00 AM42 °FOvercast.9 mph80%29.35 "Hg28 mi
3:00 AM43 °FOvercast.10 mph73%29.35 "Hg28 mi
2:00 AM44 °FPassing clouds.14 mph75%29.32 "Hg25 mi
1:00 AM44 °FPassing clouds.15 mph81%29.29 "Hg25 mi
12:00 AM44 °FLight rain. Overcast.14 mph83%29.26 "Hg22 mi
11:00 PM
Sun, Mar 29
48 °FSprinkles. Overcast.15 mph90%29.23 "Hg7 mi
10:00 PM49 °FSprinkles. Overcast.12 mph90%29.23 "Hg14 mi
9:00 PM50 °FLight rain. Overcast.15 mph87%29.26 "Hg16 mi
8:00 PM49 °FLight rain. Overcast.13 mph87%29.32 "Hg11 mi
7:00 PM49 °FLight rain. Overcast.13 mph84%29.35 "Hg11 mi
6:00 PM49 °FLight rain. Overcast.13 mph83%29.41 "Hg12 mi
5:00 PM48 °FLight rain. Overcast.10 mph87%29.47 "Hg12 mi
4:00 PM48 °FLight rain. Overcast.12 mph87%29.50 "Hg12 mi
3:00 PM48 °FLight rain. Overcast.12 mph86%29.55 "Hg11 mi
Weather by CustomWeather, © 2015

See weather overviewHow to use our weather pages